Temp
39 38 38 40 40 38 36 40 40 40 40 39 34 31 35 37 38 37 37 36 35 36 37 35 35 34 33 32 31 30 29 29 28 27 27 27 28 28 28 28 27 27 26 26
38 38 40 41 41 40 40 40 39 41 41 40 38 35 35 38 38 38 37 37 36 36 37 36 35 35 33 32 30 30 29 28 28 27 28 28 29 29 29 29 28 27 27 26
38 40 42 41 40 40 40 40 40 39 40 40 38 35 31 38 38 38 39 38 37 37 37 36 36 35 33 32 31 29 29 28 28 28 28 29 29 29 29 29 24 24 26 26
39 41 40 40 40 40 39 41 40 40 39 38 38 35 32 37 38 38 38 38 38 37 37 37 36 36 35 32 31 30 29 28 28 28 28 29 28 29 29 28 25 24 25 26
38 40 40 39 40 41 39 41 40 39 39 39 39 38 38 39 38 38 38 39 39 38 37 37 37 36 36 34 33 30 29 29 28 27 28 29 29 29 30 28 27 27 26 26
39 41 41 40 41 41 41 40 40 40 39 35 33 37 38 38 40 39 39 39 39 39 38 38 37 36 36 35 33 32 29 29 28 27 28 28 29 29 29 29 28 28 27 25
39 39 41 41 39 40 40 39 37 37 38 30 35 38 40 41 41 41 40 39 40 39 39 37 38 37 36 35 34 33 30 29 28 28 27 28 28 28 29 29 29 29 27 26
38 38 40 41 40 39 40 40 38 36 37 35 39 40 40 42 41 41 41 40 40 39 39 39 38 37 36 36 34 34 30 29 28 28 28 27 27 27 28 29 29 29 28 27
38 38 42 42 41 40 39 39 41 39 40 39 40 41 42 42 41 41 40 40 39 40 40 39 38 38 37 36 35 34 30 29 29 28 27 27 27 27 28 28 29 29 29 27
39 37 40 41 41 41 40 41 39 40 36 36 39 39 39 39 40 40 41 40 40 40 39 39 39 39 38 37 36 35 32 30 29 29 28 27 27 27 28 29 29 29 29 27
39 38 38 40 39 38 39 39 39 40 40 38 37 37 40 39 40 40 41 41 40 40 40 40 39 39 38 38 37 36 35 33 31 30 29 28 27 27 27 28 28 28 28 27
39 38 37 38 41 41 40 40 40 38 37 39 39 35 41 41 41 40 40 41 41 40 40 40 39 38 38 38 37 36 35 34 32 31 30 28 28 27 27 27 28 27 27 26
38 37 36 37 39 41 40 40 40 41 41 39 39 34 40 39 39 39 39 39 39 40 39 40 40 38 38 38 37 36 35 34 33 31 30 29 28 28 28 27 27 27 27 25
35 37 37 36 38 40 39 39 40 40 39 39 40 36 38 39 38 38 38 38 38 38 38 38 38 37 36 37 36 36 35 34 33 31 30 30 29 28 28 28 28 27 26 25
36 35 37 38 39 39 39 39 40 39 39 39 39 37 38 38 38 38 38 38 38 38 38 38 38 37 36 35 36 35 35 34 33 32 31 30 30 29 29 29 28 27 26 25
37 35 36 36 37 35 36 38 39 40 40 39 40 37 37 38 38 38 36 36 36 37 37 38 38 37 37 35 34 34 34 34 33 31 31 30 29 29 29 29 28 26 25 24
35 34 34 34 35 34 35 37 36 36 40 40 39 37 35 37 37 37 36 36 35 36 36 36 37 38 38 36 34 33 33 32 32 31 30 30 29 29 28 25 25 23 22 23
35 35 35 34 32 31 35 34 34 32 38 41 40 38 37 38 36 36 36 35 35 35 35 36 37 38 38 39 37 34 33 31 31 30 30 30 29 25 23 24 24 23 24 24
33 31 30 30 30 29 32 34 31 30 29 37 36 36 38 38 36 35 35 36 36 36 36 35 36 36 35 34 35 34 33 31 30 29 29 29 25 23 23 23 24 24 23 20
33 29 29 29 28 26 27 30 31 32 31 30 35 31 25 32 34 31 34 36 36 36 35 34 34 34 34 33 35 33 32 30 29 29 27 25 24 23 24 23 22 21 22 21
28 29 24 26 27 30 29 30 30 27 29 29 28 30 26 29 34 32 34 34 35 35 35 34 33 32 32 33 33 33 32 29 25 24 22 22 22 20 21 21 20 22 21 20
23 26 27 27 26 27 28 31 30 28 27 27 24 28 33 34 34 35 35 35 35 35 34 34 32 31 30 30 31 25 24 23 23 22 22 22 21 21 21 21 20 20 19 19
22 20 22 25 24 24 21 22 28 21 28 30 30 33 34 34 34 34 34 35 35 35 34 33 33 29 27 28 28 24 23 22 23 22 22 22 21 22 21 20 19 19 19 19
19 19 22 21 23 23 23 26 26 25 31 33 33 33 34 33 34 34 34 35 34 34 33 33 32 30 26 25 24 23 23 22 23 23 22 22 22 21 20 20 19 19 19 19
20 19 21 27 20 20 21 24 31 32 32 32 33 33 33 33 33 33 33 33 34 33 32 32 31 30 26 25 23 23 22 22 22 22 22 23 22 21 20 20 20 20 20 20
23 22 26 28 23 24 23 20 31 31 32 32 32 32 33 33 32 33 32 32 32 33 31 30 29 28 27 25 23 22 21 21 21 21 22 23 23 21 20 19 19 20 20 20
Height
724 740 744 719 711 723 734 720 719 710 703 715 738 745 717 717 720 723 728 733 740 741 741 750 756 761 769 775 782 791 795 798 801 804 807 807 806 808 809 811 813 815 815 814
735 742 717 706 704 714 719 724 725 707 698 708 723 738 727 717 717 714 720 725 733 738 739 745 752 757 764 772 780 786 793 796 799 802 803 804 803 805 809 812 814 817 819 814
739 721 699 709 716 721 719 721 720 727 708 703 721 743 740 710 709 710 708 713 721 731 734 740 748 753 761 768 775 781 789 792 796 799 801 801 802 805 810 811 815 811 812 815
727 707 711 715 722 716 732 700 709 717 724 743 716 766 746 719 714 712 710 710 715 721 728 734 742 749 755 763 770 777 783 789 793 796 799 799 802 804 805 802 806 811 812 814
731 718 720 727 720 707 723 698 713 715 724 720 719 735 726 706 718 714 707 705 706 711 721 727 737 746 750 757 765 773 779 786 790 793 795 797 798 800 802 805 808 811 812 807
717 696 703 710 703 702 700 712 711 711 717 761 752 736 730 719 704 702 697 698 701 706 712 722 731 740 747 753 761 768 774 780 786 789 792 794 796 797 800 801 803 805 804 806
723 715 700 699 720 704 709 727 753 750 741 809 734 727 709 691 686 686 690 694 695 702 708 718 725 733 742 748 755 762 769 774 780 785 789 791 793 795 796 799 799 801 803 806
733 737 703 694 710 721 713 717 746 770 750 757 708 726 713 679 679 681 682 686 692 698 703 710 719 727 735 742 750 756 762 769 775 780 784 787 790 792 793 795 797 798 798 803
733 727 682 685 689 703 718 728 702 724 712 726 710 702 681 677 685 685 690 690 696 696 699 705 712 721 729 736 743 750 757 764 769 773 778 782 785 788 790 792 795 796 798 801
710 738 697 691 689 693 708 697 730 720 762 765 723 720 721 704 701 691 689 691 693 694 698 702 708 714 722 731 737 745 751 758 763 768 773 777 780 782 786 789 790 793 795 797
701 716 718 695 711 720 713 722 715 711 715 745 753 743 693 701 696 692 687 685 689 693 696 699 706 711 717 723 730 737 744 750 756 761 767 771 774 777 780 783 786 789 792 793
701 715 730 717 686 681 693 704 705 736 741 719 721 753 680 685 686 686 687 686 687 690 693 697 702 710 713 719 724 729 736 742 748 754 760 765 768 771 774 778 783 787 791 791
704 717 741 731 704 684 701 698 695 695 701 720 731 753 688 695 699 692 692 690 693 692 695 696 698 705 711 715 720 726 730 736 741 747 753 759 763 768 771 774 779 783 786 788
710 719 724 736 717 691 704 699 698 701 718 714 707 724 704 702 705 700 698 696 696 697 698 699 699 701 706 713 717 722 727 732 737 743 747 751 756 761 765 769 773 775 780 785
714 734 719 707 696 696 696 697 695 709 705 717 704 715 707 702 704 701 697 695 697 699 699 699 702 703 705 709 714 719 723 727 732 736 739 743 749 755 760 764 769 777 784 788
705 730 719 723 706 712 716 700 695 692 695 697 693 709 696 693 698 701 704 702 705 705 701 698 697 700 705 709 713 717 720 723 727 730 734 740 747 754 760 766 775 782 786 788
722 727 731 739 718 726 733 713 710 706 685 689 710 707 709 703 704 707 705 705 707 708 706 703 699 698 700 704 709 713 717 721 724 727 733 740 747 753 758 761 768 770 777 780
720 723 722 734 739 765 718 709 713 723 689 677 683 690 691 693 701 707 705 706 706 707 707 705 700 697 697 697 699 704 710 716 722 726 732 739 745 748 752 757 762 764 762 762
719 737 751 761 759 755 733 716 734 741 731 687 690 691 686 689 700 712 705 704 705 706 708 707 704 702 700 700 698 698 706 714 721 727 731 737 739 747 751 754 756 759 766 772
724 742 752 755 776 790 743 724 712 720 742 715 698 711 731 717 715 726 705 705 706 706 709 711 709 705 705 705 703 707 711 716 722 727 731 735 742 747 750 753 758 760 765 768
755 750 773 770 771 750 732 729 719 762 751 726 724 704 718 724 697 709 704 706 709 709 710 711 714 712 712 710 709 711 714 719 724 728 734 739 745 751 757 758 762 764 766 771
782 772 767 768 779 774 739 718 735 727 723 729 727 716 700 710 705 703 705 708 710 710 710 712 715 716 716 715 715 718 721 726 730 733 738 743 748 752 758 760 762 765 768 771
789 787 793 780 773 750 756 757 735 744 722 722 723 711 706 710 709 708 711 710 711 710 712 715 715 719 722 721 721 724 727 729 732 736 740 744 748 753 756 762 765 768 771 774
784 782 780 776 765 751 747 741 733 740 722 713 717 717 714 715 713 712 709 709 710 709 712 713 717 721 726 726 726 727 730 732 735 737 741 745 748 753 755 759 763 767 770 774
777 776 773 753 773 764 752 738 723 720 722 719 719 716 714 714 715 714 713 710 709 711 713 716 720 724 727 729 730 731 732 734 736 740 743 746 748 753 756 760 762 765 768 772
755 764 759 751 757 753 760 759 726 725 721 719 719 716 714 715 716 714 714 713 712 711 715 719 723 725 727 729 731 733 735 736 739 741 742 744 747 751 754 758 761 764 766 770
Wind_Speed
15 12 14 19 1 24 23 14 10 8 4 5 7 21 6 16 15 18 17 19 18 16 16 23 23 23 22 25 24 18 17 16 17 15 14 12 13 13 13 14 13 10 5 6
14 16 15 16 17 7 12 13 4 5 6 2 11 12 13 11 16 16 16 18 19 18 17 19 24 24 29 27 27 24 19 20 18 16 16 16 15 16 13 10 8 2 6 5
17 18 16 10 14 8 14 14 10 7 10 5 6 3 10 10 15 14 18 16 19 19 19 18 18 24 30 29 29 29 23 23 22 18 16 13 9 5 6 5 16 10 9 4
15 18 16 13 10 10 14 10 10 9 11 10 10 5 11 14 14 17 15 17 18 20 18 18 20 22 27 31 31 31 28 23 22 21 15 15 12 11 14 14 13 17 6 5
15 16 14 13 18 12 15 12 10 14 14 18 13 8 9 8 12 16 17 17 18 19 19 20 20 24 23 29 28 30 29 25 22 23 20 16 16 15 12 20 12 9 6 8
16 19 8 11 12 15 15 15 14 16 15 2 21 18 7 6 9 18 17 16 17 17 19 16 25 26 23 25 26 29 32 29 27 24 23 21 14 18 10 6 9 7 9 11
18 19 16 12 13 15 15 15 11 14 13 1 22 16 9 11 10 4 15 14 16 15 15 16 16 19 24 24 27 25 32 29 28 25 22 24 21 14 14 6 6 4 15 13
14 13 22 17 15 15 13 16 11 17 15 8 23 5 7 10 14 6 5 14 11 17 17 19 18 19 25 25 31 28 34 28 27 25 24 22 26 18 16 13 13 14 13 15
16 15 4 1 9 11 14 12 17 17 17 13 2 9 12 16 14 9 12 10 11 14 13 13 18 20 22 23 28 29 33 30 29 26 25 24 23 23 20 18 16 12 5 13
13 15 14 4 9 8 13 15 13 9 10 9 5 5 11 14 11 8 10 11 12 12 14 15 12 20 23 26 24 26 29 30 28 25 26 25 25 26 24 21 17 16 14 15
9 12 17 10 8 12 13 14 14 16 12 8 9 4 13 11 6 10 11 9 11 11 13 12 13 14 22 23 26 27 28 30 31 29 27 26 26 26 27 23 23 20 13 18
8 13 12 18 12 15 13 16 16 12 15 12 9 5 12 11 8 10 11 12 10 8 9 11 13 14 16 19 23 27 29 29 31 32 29 30 28 27 25 27 22 20 17 20
10 8 10 15 14 16 8 11 13 14 14 16 12 7 12 10 7 9 9 8 6 5 6 8 13 13 11 17 18 23 28 30 32 33 30 28 27 26 25 24 23 22 22 23
8 14 18 11 13 12 16 17 13 18 11 14 16 16 13 11 9 11 10 6 3 3 4 3 5 7 16 16 16 22 23 30 30 30 30 31 30 28 27 25 26 28 27 24
9 16 18 18 18 18 12 14 12 13 17 17 4 16 14 13 10 11 11 10 6 3 6 8 7 4 7 14 16 14 22 27 29 33 33 32 30 29 27 26 27 23 21 19
9 15 16 19 16 17 18 17 16 16 15 15 18 15 8 15 10 10 11 12 10 7 8 10 6 11 7 12 13 16 20 24 29 31 28 27 26 25 22 18 14 13 13 12
8 13 17 15 9 15 13 12 17 27 16 15 16 19 24 12 13 9 11 12 11 9 9 8 8 5 14 18 19 20 20 21 24 22 23 21 21 18 16 19 21 24 22 21
17 17 14 13 4 11 11 22 20 23 14 17 7 15 13 13 15 9 9 10 9 8 9 8 9 7 10 14 26 26 23 23 20 19 16 18 19 21 28 31 31 25 25 20
8 8 7 4 9 13 17 5 8 14 26 12 17 8 13 8 18 11 9 9 9 9 9 11 12 10 13 16 13 22 18 19 16 15 14 18 25 32 35 33 31 29 19 10
17 8 0 9 4 13 7 18 8 15 5 24 11 15 18 23 12 8 12 10 9 9 11 12 14 16 14 12 4 13 12 14 12 14 14 21 28 36 37 36 28 17 6 4
6 5 3 6 4 10 14 21 7 3 5 10 18 11 13 5 9 13 11 3 6 5 9 12 14 13 10 7 6 5 6 8 13 16 18 23 27 25 19 14 9 7 7 12
2 5 5 3 5 8 19 6 3 10 7 4 7 27 10 3 5 8 7 4 5 5 6 8 9 11 12 11 7 17 18 12 14 17 20 22 22 18 13 9 6 7 14 18
1 2 4 6 4 4 6 22 3 8 16 12 13 5 6 6 5 4 3 0 4 4 3 4 6 8 8 10 9 11 11 10 13 15 16 17 15 10 8 13 17 15 16 17
3 3 4 7 3 7 10 20 6 16 10 8 6 4 5 7 8 8 6 6 5 7 6 6 4 6 4 5 9 8 8 10 12 13 18 12 8 8 13 16 19 17 18 18
5 2 10 18 11 6 13 20 8 8 6 5 5 6 7 8 10 10 10 9 4 3 3 3 2 4 6 4 6 7 10 11 10 9 13 9 12 11 16 14 16 15 16 19
12 7 11 5 9 4 9 14 14 10 9 7 8 8 7 7 9 8 7 8 12 1 5 6 3 1 3 5 5 7 8 9 11 9 9 13 12 13 16 17 12 14 18 19
Wind_Direction
244 240 247 267 115 195 216 283 304 62 104 326 226 44 210 166 192 173 175 176 183 198 183 166 179 171 164 156 155 176 175 170 161 171 195 221 230 215 221 238 234 210 234 258
252 242 250 284 300 344 301 290 316 304 21 344 14 140 206 189 194 186 182 174 178 196 192 170 179 170 165 162 160 168 180 175 184 197 202 208 226 219 218 216 195 190 262 238
245 259 248 227 268 271 253 264 20 343 310 321 344 83 257 232 190 209 183 182 177 186 198 181 186 184 163 166 161 165 181 184 193 198 207 230 251 246 185 179 64 298 217 225
250 260 269 280 276 290 279 359 350 303 291 284 171 176 236 217 182 195 210 183 185 181 195 178 188 194 181 163 167 170 179 188 196 206 214 211 218 232 223 204 167 198 215 155
262 243 262 270 272 263 262 322 330 291 283 272 175 245 154 140 191 193 202 200 194 182 179 185 188 191 204 171 173 170 176 187 198 204 210 214 218 240 254 146 154 180 168 151
257 278 283 283 285 266 275 300 284 271 257 61 309 302 153 169 156 186 187 197 193 185 174 190 178 188 199 181 173 175 176 189 199 203 211 221 224 236 263 200 154 186 178 172
251 246 251 233 259 262 237 249 273 273 233 257 244 257 103 83 63 40 161 169 187 180 182 167 184 182 186 190 181 183 176 181 193 201 206 220 221 229 246 252 215 218 174 178
245 238 208 216 221 266 262 233 256 296 310 193 226 136 104 95 101 86 105 147 187 179 189 180 179 185 185 189 181 190 174 179 184 195 208 214 219 222 226 230 232 224 203 182
277 277 268 326 192 229 260 225 245 278 302 299 6 24 124 105 104 121 114 128 163 183 194 182 171 177 179 185 183 187 169 177 182 191 204 208 213 213 217 222 227 238 149 173
246 271 278 155 234 238 273 275 269 227 259 278 256 350 113 98 114 120 138 147 157 183 190 176 196 178 181 185 189 187 172 177 184 192 199 204 207 213 211 222 219 213 211 180
267 268 269 267 181 249 227 239 257 279 280 285 295 84 111 113 119 121 108 134 139 165 184 189 175 209 181 189 184 189 190 184 186 190 196 201 206 209 215 215 215 208 196 186
230 266 261 251 245 237 235 253 216 240 252 275 306 162 115 116 118 113 92 70 96 130 168 186 166 195 187 190 186 190 190 192 188 189 196 200 204 205 208 213 214 206 201 189
312 244 249 264 270 233 212 259 273 262 247 269 269 83 87 106 95 71 89 92 108 83 148 187 180 175 192 188 193 188 192 191 188 186 191 196 205 205 207 209 209 202 198 182
307 279 292 278 253 302 217 204 231 265 268 250 255 155 155 117 111 110 107 105 69 145 151 281 327 170 175 193 190 187 186 189 185 185 191 199 202 207 208 208 202 199 194 181
254 265 274 282 288 313 312 279 219 223 259 264 39 114 116 117 111 89 92 82 74 164 222 202 207 265 158 173 177 180 189 183 185 191 198 201 205 204 207 211 203 195 179 180
275 269 273 288 328 347 314 308 270 282 229 268 277 132 95 124 97 102 88 82 71 34 350 335 226 187 198 174 189 191 195 197 192 197 203 203 203 202 206 210 187 184 190 200
270 289 299 294 4 328 292 338 343 324 270 242 246 113 150 125 97 73 91 86 67 45 22 345 313 294 195 196 194 200 205 206 209 204 204 201 193 188 183 150 146 130 118 97
286 272 269 290 328 254 289 332 334 343 299 249 171 105 94 104 104 96 80 87 73 49 36 12 331 309 286 240 200 200 201 203 208 212 201 195 182 156 143 143 148 149 160 175
21 14 332 318 292 329 302 320 7 357 318 312 64 74 115 142 125 108 79 59 60 52 32 24 359 333 357 355 341 167 177 179 195 199 186 184 165 148 152 153 165 176 188 208
313 54 181 311 315 222 233 316 23 9 348 344 350 66 8 327 130 59 33 36 55 41 39 31 23 12 31 343 105 134 146 156 171 182 163 159 160 160 166 169 166 185 279 277
321 302 15 305 318 301 110 228 145 38 282 326 347 116 134 218 47 161 143 121 56 32 30 66 30 34 23 358 10 61 144 117 111 133 142 153 156 147 154 166 196 267 273 183
352 302 278 276 252 253 0 265 232 289 171 280 9 300 60 24 31 60 72 45 30 35 39 20 72 34 22 13 42 77 85 104 117 129 138 141 142 144 130 141 151 173 158 151
146 180 330 274 285 253 308 288 155 46 209 174 198 289 12 335 346 357 345 314 325 324 73 353 32 69 30 20 39 87 113 128 136 135 139 144 141 144 144 144 150 149 151 150
18 263 228 235 256 316 312 279 116 324 160 63 70 352 4 356 343 331 320 332 342 349 26 54 11 68 59 40 57 89 112 136 145 144 134 133 146 146 158 167 168 169 170 175
190 147 251 259 112 46 325 330 309 37 17 1 328 340 360 352 349 344 331 323 292 331 101 78 52 70 92 87 100 124 141 144 145 148 163 165 151 153 160 171 183 180 188 183
166 190 254 265 131 160 189 215 305 304 310 309 306 319 316 325 315 309 311 315 319 195 78 110 87 93 139 145 150 147 156 160 167 184 202 210 170 163 171 179 182 192 185 179